Location: Dackenheim
(49.5215°N, 8.1854°E)
Time: 06:59:36
(UTC+00:00)

Cosmos 1125 Rocket - Pass Details

Date: 19 May 2025
Orbit: 753 x 776 km, 74.0° (Epoch: 14 June)

Event Time Altitude Azimuth Distance (km) Brightness Sun altitude
Rises 21:02:27 0° 332° (NNW) 3,268 8.7 -13.8°
Reaches altitude 10° 21:04:54 10° 327° (NNW) 2,337 7.5 -14.0°
Maximum altitude 21:09:58 48° 254° (WSW) 1,017 4.2 -14.4°
Enters shadow 21:14:01 16° 186° (S) 1,960 5.1 -14.8°
